TimeCST,TemperatureF,Dew PointF,Humidity,Sea Level PressureIn,VisibilityMPH,Wind Direction,Wind SpeedMPH,Gust SpeedMPH,PrecipitationIn,Events,Conditions,WindDirDegrees,DateUTC
12:52 AM,62.1,55.0,78,29.96,10.0,NNE,4.6,-,N/A,,Clear,20,2013-02-13 06:52:00
1:52 AM,61.0,55.9,83,29.97,10.0,North,4.6,-,N/A,,Clear,360,2013-02-13 07:52:00
2:52 AM,61.0,55.9,83,29.97,10.0,NNW,6.9,-,N/A,,Clear,340,2013-02-13 08:52:00
3:52 AM,62.1,55.9,80,29.97,10.0,North,10.4,-,N/A,,Clear,350,2013-02-13 09:52:00
4:52 AM,62.1,55.0,78,29.99,10.0,NNW,9.2,-,N/A,,Scattered Clouds,330,2013-02-13 10:52:00
5:52 AM,62.1,54.0,75,30.01,10.0,North,11.5,-,N/A,,Overcast,350,2013-02-13 11:52:00
6:52 AM,60.1,48.0,64,30.04,10.0,North,19.6,24.2,N/A,,Overcast,10,2013-02-13 12:52:00
7:52 AM,60.1,51.1,72,30.08,10.0,North,15.0,-,N/A,,Overcast,10,2013-02-13 13:52:00
8:29 AM,60.8,50.0,68,30.10,10.0,North,13.8,21.9,N/A,,Overcast,10,2013-02-13 14:29:00
8:52 AM,60.1,48.9,67,30.11,10.0,North,15.0,-,N/A,,Overcast,10,2013-02-13 14:52:00
9:52 AM,61.0,48.0,62,30.13,10.0,North,11.5,-,N/A,,Overcast,360,2013-02-13 15:52:00
10:52 AM,64.0,42.1,45,30.14,10.0,North,13.8,21.9,N/A,,Overcast,350,2013-02-13 16:52:00
11:52 AM,64.9,41.0,42,30.13,10.0,North,11.5,18.4,N/A,,Mostly Cloudy,10,2013-02-13 17:52:00
12:52 PM,66.0,37.9,36,30.10,10.0,NNE,10.4,19.6,N/A,,Mostly Cloudy,20,2013-02-13 18:52:00
1:52 PM,69.1,39.9,35,30.05,10.0,NE,9.2,17.3,N/A,,Clear,40,2013-02-13 19:52:00
2:52 PM,66.0,39.0,37,30.04,10.0,NNE,11.5,-,N/A,,Clear,30,2013-02-13 20:52:00
3:52 PM,63.0,41.0,45,30.02,10.0,NE,12.7,-,N/A,,Clear,50,2013-02-13 21:52:00
4:52 PM,61.0,39.9,46,30.03,10.0,ENE,15.0,-,N/A,,Partly Cloudy,60,2013-02-13 22:52:00
5:52 PM,59.0,43.0,55,30.02,10.0,ENE,11.5,-,N/A,,Clear,70,2013-02-13 23:52:00
6:52 PM,55.9,43.0,62,30.04,10.0,ENE,10.4,-,N/A,,Clear,60,2013-02-14 00:52:00
7:52 PM,54.0,43.0,66,30.06,10.0,ENE,6.9,-,N/A,,Clear,70,2013-02-14 01:52:00
8:52 PM,54.0,44.1,69,30.09,10.0,Calm,Calm,-,N/A,,Clear,0,2013-02-14 02:52:00
9:52 PM,53.1,44.1,71,30.09,10.0,ESE,4.6,-,N/A,,Clear,110,2013-02-14 03:52:00
10:52 PM,50.0,43.0,77,30.11,10.0,ESE,6.9,-,N/A,,Clear,120,2013-02-14 04:52:00
11:52 PM,51.1,44.1,77,30.11,10.0,ESE,3.5,-,N/A,,Clear,110,2013-02-14 05:52:00